Regional Weather Roundup
Issued by NWS Memphis, TN

Home | Current Version | Previous Version | Text Only | Print | Product List | Glossary On
Versions: 1 2 3 4 5 6 7 8 9 10 11 12 13 14 15 16 17 18 19 20 21 22 23 24 25 26 27 28 29 30 31 32 33 34 35 36 37 38 39 40 41 42 43 44 45 46 47 48 49 50
000
ASUS44 KMEG 220410
RWRMEG
MEMPHIS CWA HOURLY WEATHER ROUNDUP
NATIONAL WEATHER SERVICE MEMPHIS TN
1000 PM CST TUE NOV 21 2017

...WEST TENNESSEE...

CITY           SKY/WX    TMP DP  RH WIND       PRES   REMARKS
MEMPHIS INTL   PTCLDY    46  40  79 CALM      30.12R
NWS MEMPHIS      N/A     42 N/A N/A MISG        N/A
JACKSON        CLEAR     39  37  92 CALM      30.13R
COVINGTON      CLEAR     39  36  87 N5        30.14R
SOMERVILLE     CLEAR     41  37  87 CALM      30.11R
BOLIVAR        CLEAR     39  36  87 CALM      30.11R
LEXINGTON      PTCLDY    39  36  87 CALM      30.11S
SELMER         MOCLDY    39  37  93 CALM      30.11R
SAVANNAH       CLOUDY    37  37 100 CALM      30.11R
DYERSBURG      CLEAR     48  38  68 N15       30.15R
UNION CITY     CLEAR     45  39  81 N13       30.15R
PARIS          PTCLDY    46  37  71 N9G16     30.13R
HUNTINGDON     PTCLDY    39  36  87 CALM      30.12R


...EASTERN ARKANSAS...

CITY           SKY/WX    TMP DP  RH WIND       PRES   REMARKS
JONESBORO      CLEAR     52  37  56 N10       30.16R
WEST MEMPHIS   CLEAR     43  42  97 N3        30.13R
BATESVILLE     CLEAR     51  34  52 N9        30.20R
NEWPORT        CLEAR     43  37  79 N7        30.18R
WALNUT RIDGE     N/A     43  36  76 N9        30.18R
BLYTHEVILLE    CLEAR     47  38  71 N18       30.16R
SEARCY         CLEAR     52  37  56 N10       30.17R
STUTTGART      CLEAR     50  43  77 N13       30.15R
PINE BLUFF     CLEAR     48  45  89 NW5       30.14R
MONTICELLO     PTCLDY    47  44  90 CALM      30.12R


...NORTH MISSISSIPPI...

CITY           SKY/WX    TMP DP  RH WIND       PRES   REMARKS
TUPELO         CLEAR     42  37  82 N3        30.10R
OXFORD         CLOUDY    41  37  87 CALM      30.13R
BATESVILLE     CLEAR     38  35  90 CALM      30.13R
TUNICA           N/A    N/A N/A N/A CALM      30.13R
CLARKSDALE       N/A     45  41  87 CALM      30.12R
CORINTH        PTCLDY    39  37  93 CALM      30.11R
GREENWOOD      CLEAR     44  40  85 CALM      30.11R
COLUMBUS       PTCLDY    39  37  93 CALM      30.09R
STARKVILLE     CLOUDY    41  37  87 CALM      30.11R
GOLDEN TRIANGL CLOUDY    45  38  76 CALM      30.11R


...SOUTHEAST MISSOURI...

CITY           SKY/WX    TMP DP  RH WIND       PRES   REMARKS
KENNETT        PTCLDY    46  36  66 NE10G16   30.16R
MALDEN         CLEAR     43  32  65 NE5       30.20R
WEST PLAINS    CLEAR     42  22  44 N12G20    30.23R
POPLAR BLUFF   CLEAR     46  24  42 N13       30.19R
CAPE GIRARDEAU CLEAR     41  24  51 N12G20    30.19R


...NORTHWEST ALABAMA...

CITY           SKY/WX    TMP DP  RH WIND       PRES   REMARKS
MUSCLE SHOALS  CLEAR     40  35  83 CALM      30.11R


...MIDDLE TENNESSEE...

CITY           SKY/WX    TMP DP  RH WIND       PRES   REMARKS
NASHVILLE      CLOUDY    43  32  65 CALM      30.11R
CLARKSVILLE    PTCLDY    43  33  68 NW9       30.12R
COLUMBIA       PTCLDY    39  36  87 CALM      30.09R


...WESTERN KENTUCKY...

CITY           SKY/WX    TMP DP  RH WIND       PRES   REMARKS
PADUCAH        CLEAR     43  24  47 N13G24    30.18R
FORT CAMPBELL  CLEAR     47  36  65 NW9       30.12R


...CENTRAL ARKANSAS...

CITY           SKY/WX    TMP DP  RH WIND       PRES   REMARKS
LITTLE ROCK    CLEAR     53  39  59 N13       30.16R


SKY/WX REPORTED AS FAIR MEANS FEW OR NO CLOUDS BELOW
12 THOUSAND FEET.





USA.gov is the U.S. government's official web portal to all federal, state and local government web resources and services.